Volver al catálogo

COSMOS 375 DEB

ActivoLEO
NORAD 4942·DEBRIS·🇷🇺 Russia

Lanzado Oct 30, 1970 desde Baikonur Cosmodrome

Loading…

Próximos Pases

TLE

Source: Space-Track
1  4942U 70091AK  26221.64424292 -.00000023  00000-0  45833-4 0  9995
2  4942  63.0963 200.5022 0816732 258.8139  92.0074 12.95846300604002

Sigue COSMOS 375 DEB en tiempo real con AllMySat

Download on the App Store